Погода в Мирном

Россия / Тверская область     56°13′55″N   33°09′55″E
темп.,
°C
ветер,
м/с
пор.,
м/с
влажн.,
%
обл.,
%
осадки,
мм/ч
давл.,
гПа
погр.,
м
17 мая, пн
пн1700:00+12юв119154 0.0 101311
03:00+11в2294100 0.0 101339
06:00+12в269199 0.0 1013147
09:00+18вюв476799 0.0 1012503
12:00+21вюв4755100 0.0 10111182
15:00+23вюв685180 0.0 10091613
18:00+22вюв5117099 0.5 10071171
21:00+19вюв5158264 0.6 1006577
18 мая, вт
вт1800:00+17вюв515852 0.0 1006613
03:00+16вюв41387100 0.0 1005473
06:00+15юв5139382 0.7 1005445
09:00+19юв51382100 0.7 1005696
12:00+24ююв695473 0.0 10051619
15:00+24ююв6860100 0.5 10051638
18:00+19ююв3987100 4.7 1005612
21:00+17ю51381100 8.3 1006492
19 мая, ср
ср1900:00+15юв119033 0.4 100517
03:00+13юв2797100 0.4 1005178
06:00+13юв2895100 0.0 1006280
09:00+15юв259188 0.0 1006221
12:00+17ююв3687100 0.8 1005263
15:00+19ююв488178 3.1 10051005
18:00+18юв5117670 0.7 10051032
21:00+15ююв389324 0.7 1005264
20 мая, чт
чт2000:00+13юв279833 0.1 1005164
03:00+12юв2598100 0.1 1005118
06:00+13юв2796100 0.0 1005234
09:00+14юв2393100 0.6 1004190
12:00+15вюв2386100 2.8 1004104
15:00+16ююв2478100 4.4 1003513
18:00+16ю368675 1.9 1002620
21:00+12юз5119650 5.7 1003504
21 мая, пт
пт2100:00+10юз51097100 0.2 1005823
03:00+9юз61296100 0.4 1007981
06:00+9зюз61194100 0.2 1010883
09:00+12зюз597618 0.3 1012871
12:00+16зюз4644100 0.0 10141449
15:00+16юз4642100 0.0 10141590
18:00+14ю3563100 0.0 1014406
21:00+11юз2287100 0.5 101460